Theta_e
324 326 326 324 322 320 320 322 323 323 322 318 318 319 319 320 319 320 316 316 322 323 320 321 323 324 324 326 328 329 328 327 327 325 323 323 322 320 320 320 319 319 320 320
325 327 324 323 321 321 321 322 324 322 321 319 319 318 317 315 318 321 321 321 319 318 319 321 321 323 325 323 323 326 327 328 327 327 324 323 321 320 322 321 320 319 320 320
323 323 322 324 324 323 322 322 323 324 316 317 317 320 319 315 317 319 321 322 322 323 323 322 319 321 322 324 323 322 324 326 328 327 328 327 325 324 322 322 321 321 320 320
322 322 323 324 325 323 326 320 322 323 321 327 316 328 319 316 317 315 319 322 324 324 324 324 321 319 320 322 323 323 324 326 327 329 329 328 326 325 322 322 322 321 321 321
321 322 323 325 324 323 324 322 323 325 324 325 321 321 320 315 315 313 315 319 323 325 325 325 323 319 320 321 321 322 325 326 328 329 329 329 329 327 325 324 323 323 322 323
312 312 316 323 321 321 321 322 322 321 324 328 325 324 323 319 316 315 316 318 320 322 324 324 324 322 321 322 321 322 324 325 327 328 330 329 328 327 326 323 322 322 323 323
315 315 315 321 324 321 323 324 326 327 324 328 319 319 324 317 313 314 316 317 318 319 320 320 322 323 323 323 322 321 323 324 325 326 328 328 326 327 325 324 324 323 322 322
318 319 317 321 324 325 324 324 325 328 327 324 313 323 322 316 319 318 317 317 316 317 318 319 320 322 322 323 322 321 322 324 324 325 325 325 326 326 325 325 326 325 324 322
318 318 318 319 319 322 325 326 319 313 299 312 310 310 311 309 308 311 314 314 316 317 319 320 320 320 320 320 320 319 319 320 323 324 325 325 326 326 325 326 327 327 326 324
314 319 318 319 318 321 323 322 323 316 318 317 314 312 320 315 313 310 308 314 315 315 316 318 319 320 320 320 320 318 318 318 318 320 324 326 326 327 327 327 327 327 327 327
311 313 318 318 321 323 321 325 319 319 312 318 315 315 307 315 312 310 310 313 317 314 314 314 315 316 315 315 317 320 319 319 318 317 320 323 324 325 327 327 327 327 328 328
311 311 317 319 315 313 320 322 322 323 317 309 312 319 306 307 306 311 313 312 317 314 315 313 313 313 313 314 313 313 314 316 316 315 316 318 320 322 325 325 325 326 326 327
311 311 316 319 314 311 321 318 322 312 315 313 316 315 305 304 305 309 310 312 314 313 311 311 311 312 313 313 313 312 311 312 312 312 312 313 313 315 317 319 321 323 324 325
312 311 314 320 320 318 321 319 320 319 320 320 317 318 311 308 306 306 308 310 310 311 310 310 310 310 310 310 310 310 310 310 310 309 309 309 309 309 309 309 309 309 310 311
312 314 312 314 314 316 320 320 320 319 319 319 318 314 310 308 306 305 309 309 309 309 309 309 310 310 310 310 310 310 310 310 310 310 309 310 309 309 309 309 309 309 309 309
307 313 312 315 313 316 317 319 319 319 319 313 310 310 309 309 307 306 307 307 309 310 310 310 310 310 310 310 310 310 310 310 310 310 310 309 309 309 309 309 309 310 310 310
306 308 312 317 311 315 320 318 317 318 318 318 316 315 307 305 304 306 308 308 311 311 311 310 310 310 310 309 310 310 310 309 309 309 309 309 309 309 309 309 309 309 309 309
303 306 308 314 314 318 316 315 316 316 316 317 315 312 308 310 312 312 311 310 311 311 312 311 310 310 310 310 310 309 309 309 309 309 308 309 309 309 309 309 310 310 311 311
305 306 308 311 316 311 307 308 315 316 317 315 315 315 312 313 309 309 311 310 311 312 312 312 311 310 310 310 309 309 309 309 309 308 308 308 309 309 309 310 310 310 310 309
305 306 308 309 314 318 311 306 312 312 316 313 314 314 310 308 312 313 313 312 310 311 311 311 310 310 309 309 309 309 309 308 308 308 308 308 308 308 309 309 309 308 309 309
308 307 308 309 310 305 304 304 313 316 317 315 313 314 314 309 313 314 314 314 312 310 310 310 310 310 310 310 310 309 309 309 308 307 307 307 308 308 309 309 308 307 308 309
309 309 309 308 307 312 302 309 314 314 313 313 314 314 314 313 314 314 314 314 312 313 311 309 310 310 310 310 310 309 308 308 307 307 307 307 308 308 308 308 307 307 308 308
309 309 311 309 308 304 306 310 313 309 313 311 312 313 313 313 312 313 314 314 313 312 311 310 310 310 310 309 308 308 308 307 307 306 306 307 307 308 308 307 307 307 306 306
306 307 308 309 307 305 306 309 309 308 308 307 308 310 312 312 312 312 312 312 312 311 310 310 310 309 308 308 308 307 306 306 306 306 306 307 307 307 307 306 305 304 304 304
305 306 307 304 304 305 308 307 309 309 309 310 307 309 309 311 311 311 310 311 311 310 310 309 308 308 308 307 306 306 306 306 306 306 306 307 306 306 306 306 304 304 303 302
303 307 309 307 306 309 310 311 311 310 309 309 310 309 309 309 310 311 310 311 311 309 308 307 307 307 306 306 306 306 306 306 306 306 306 305 305 305 305 304 304 303 302 301
Wind_Speed
25 10 15 25 22 8 8 6 13 9 6 5 13 17 13 25 13 18 31 28 34 37 33 33 33 33 36 37 37 36 36 35 33 34 33 32 32 30 29 27 26 25 24 22
8 21 20 17 11 14 9 14 14 4 6 6 6 15 12 12 17 28 26 28 36 37 37 36 33 35 38 36 38 38 38 38 37 37 35 35 34 34 32 29 29 28 27 26
21 19 20 18 17 18 15 19 12 7 2 1 2 14 12 8 28 26 31 33 32 34 35 40 39 38 36 39 39 38 39 40 39 37 35 35 36 36 35 36 34 32 30 29
16 27 13 18 21 15 20 10 8 10 6 7 7 7 7 7 17 14 33 40 45 43 40 36 41 40 39 37 35 37 38 39 39 37 37 37 37 38 35 36 35 33 32 31
6 11 23 20 22 26 15 6 7 8 9 3 5 4 6 3 8 9 24 39 45 45 44 44 40 41 37 34 38 36 36 37 38 36 37 37 37 36 34 34 34 34 33 33
6 10 8 19 22 20 4 8 3 4 3 7 16 11 8 9 9 7 22 34 42 49 49 45 44 40 38 32 36 39 38 35 36 36 37 37 36 35 35 34 33 33 33 33
7 12 10 11 18 19 13 14 4 6 5 7 9 8 18 6 10 12 15 28 31 29 33 40 47 41 40 37 34 37 40 37 35 35 36 35 35 35 35 34 33 32 32 33
15 12 17 19 15 11 27 20 7 7 9 7 3 11 7 11 24 27 23 18 16 24 27 29 31 40 36 35 33 33 39 40 38 36 35 34 34 35 35 35 35 33 33 33
8 10 8 12 9 21 20 15 9 5 2 3 5 8 8 11 11 15 22 17 15 18 23 23 21 30 34 32 33 33 34 36 39 40 38 37 36 36 35 34 34 34 34 32
7 5 13 20 7 22 14 24 12 3 6 4 5 6 12 11 17 11 10 28 23 20 18 17 17 20 22 24 29 32 31 33 34 35 37 37 37 36 35 34 34 34 32 31
7 3 3 18 19 21 5 17 5 4 4 6 3 8 7 17 10 12 17 32 37 26 22 20 20 21 19 18 18 23 28 30 30 30 30 31 32 32 33 34 34 33 32 31
15 5 6 26 5 10 27 17 25 14 7 4 1 14 4 9 7 18 20 26 40 29 26 22 19 19 20 19 17 17 21 23 24 25 27 28 28 30 31 32 33 33 34 32
13 6 8 5 8 2 23 16 21 4 3 8 8 9 0 4 7 11 14 20 28 27 24 22 21 19 19 19 19 18 17 18 19 21 22 23 24 26 28 29 31 31 31 31
27 7 6 10 25 16 30 27 26 28 17 25 20 24 6 5 4 3 11 20 23 23 22 21 20 20 18 16 15 13 13 13 14 15 16 17 18 19 22 23 25 26 26 27
14 10 15 21 20 17 28 38 34 31 36 23 32 19 4 5 6 7 17 21 23 24 24 23 21 17 16 16 15 15 14 13 11 10 10 10 11 12 13 14 16 17 18 19
4 3 13 15 18 19 15 25 22 28 26 7 7 9 7 7 9 9 18 22 24 23 22 22 20 18 17 16 14 13 13 12 11 10 10 10 11 11 12 12 13 14 15 16
1 4 3 16 7 11 22 24 26 28 26 29 18 25 7 5 8 20 23 29 31 30 25 24 22 17 15 16 14 13 12 13 13 12 11 10 11 11 11 11 13 14 15 15
4 3 0 3 9 11 6 23 29 30 28 24 17 15 11 13 25 29 33 39 41 35 29 26 24 19 18 17 18 18 17 15 15 15 13 12 12 12 12 12 12 10 9 8
7 4 1 3 7 3 4 7 24 20 26 29 25 20 13 22 6 18 37 42 47 40 35 28 25 20 18 17 18 17 18 20 18 17 15 14 15 14 13 12 10 7 6 4
11 6 5 3 6 7 9 7 9 5 17 19 32 27 19 19 14 19 40 46 46 43 33 30 28 23 21 19 18 18 19 19 19 19 18 18 17 15 13 11 8 6 3 2
5 2 8 10 5 9 7 6 32 15 22 31 35 37 30 14 31 49 42 47 46 42 40 33 29 26 22 19 18 20 21 20 20 21 20 18 16 14 11 9 7 6 6 6
8 8 5 4 4 11 6 17 21 25 7 4 35 47 41 52 54 38 39 40 45 40 36 36 32 28 25 23 23 24 24 22 20 19 18 17 13 11 11 10 9 9 8 6
3 7 7 9 7 3 25 8 36 4 12 19 13 35 46 46 45 48 49 43 36 36 37 35 32 29 27 25 24 22 21 20 18 18 19 17 16 14 13 11 10 9 8 8
4 7 4 3 5 14 16 35 19 22 10 11 10 14 35 40 46 48 48 41 33 35 37 35 32 30 27 24 22 21 19 18 19 18 17 17 15 15 13 11 10 8 7 6
5 7 6 7 7 14 23 23 32 36 27 32 12 9 14 36 39 43 42 41 39 41 39 35 32 27 25 23 21 21 19 19 19 19 19 19 17 15 12 11 10 8 7 7
7 10 8 5 14 18 23 32 30 33 33 28 31 19 14 20 32 38 39 43 42 40 38 35 30 27 25 23 22 21 21 20 20 20 19 17 15 15 12 9 9 9 7 7
Wind_Direction
199 204 211 198 208 214 170 221 215 219 222 160 217 247 240 252 249 241 234 232 229 232 234 234 233 233 231 232 230 230 231 234 235 236 234 236 237 238 240 242 241 242 244 245
199 226 218 204 202 203 189 212 219 222 171 155 252 260 249 234 242 237 234 234 237 237 239 238 238 235 233 231 232 231 231 233 234 237 237 240 243 243 243 248 249 247 246 246
223 220 216 196 190 200 212 209 203 203 131 35 11 269 254 242 246 244 243 247 249 246 247 242 239 236 234 232 231 233 232 233 232 236 238 241 246 248 246 245 245 246 247 249
216 237 214 205 203 191 216 185 194 196 144 221 171 267 239 231 243 218 238 245 248 250 248 246 237 238 235 234 235 235 236 234 234 234 238 240 243 247 250 251 252 252 251 251
202 192 211 219 193 194 234 148 169 195 193 146 207 257 255 188 251 234 237 238 243 245 244 240 236 236 238 237 238 237 236 237 238 236 240 244 247 252 257 257 255 254 254 254
238 306 267 211 202 196 133 139 80 62 206 220 210 210 223 212 211 226 239 242 243 244 244 242 238 234 236 239 240 237 238 239 240 241 241 246 250 251 255 255 255 256 256 255
223 254 269 200 190 187 180 161 184 197 211 228 193 209 243 209 221 219 226 243 248 243 246 245 237 233 233 236 239 238 237 238 241 243 244 247 252 253 256 258 259 260 262 262
221 236 213 186 204 176 193 190 174 192 196 212 87 232 241 225 236 240 239 246 257 236 236 239 233 228 230 233 237 238 238 240 241 243 246 249 253 256 258 260 261 264 268 270
183 228 192 214 185 183 194 201 184 89 23 84 205 282 288 254 261 250 234 226 234 229 224 224 222 218 226 231 237 237 239 241 244 247 248 250 253 256 260 263 267 268 270 272
173 260 200 211 193 207 184 191 196 182 158 231 241 278 233 210 221 232 216 225 221 209 207 203 202 206 216 227 232 231 237 239 245 248 248 249 253 258 261 266 266 269 272 273
176 203 260 198 206 181 172 198 179 171 168 211 239 251 205 224 226 226 224 218 214 205 205 209 209 212 220 224 224 223 230 236 240 244 246 249 252 257 260 262 265 267 269 270
194 171 230 214 199 229 199 193 193 195 201 223 240 251 150 245 282 245 228 213 210 211 206 206 208 208 213 216 219 221 226 232 236 239 242 245 248 251 253 257 262 265 268 270
155 202 252 203 252 286 197 209 193 156 202 211 213 253 70 315 263 226 201 205 202 209 201 196 198 199 202 210 219 224 224 225 230 235 240 244 247 250 254 257 260 262 265 268
167 171 217 239 215 183 191 199 194 200 207 220 219 239 267 295 286 257 196 192 191 194 197 194 190 186 187 190 194 198 206 216 223 229 235 240 243 246 248 252 256 260 262 263
178 188 204 242 270 199 209 196 197 197 213 208 227 233 207 251 236 234 203 188 188 187 184 180 179 181 183 183 183 182 184 191 199 208 216 226 235 241 246 249 253 256 257 258
337 215 176 230 239 208 216 207 198 208 212 245 172 246 196 209 176 186 207 192 190 192 191 190 194 193 193 190 188 187 191 195 199 206 215 224 231 236 242 248 255 259 260 258
326 16 239 222 192 231 211 198 196 208 208 214 209 223 163 187 194 193 198 201 200 202 193 189 189 190 186 186 186 194 204 215 219 222 225 229 235 239 244 249 252 254 254 256
165 189 2 298 153 221 228 210 207 206 207 218 245 178 178 201 215 215 208 203 211 209 202 202 203 193 189 191 199 208 220 228 230 230 232 236 241 242 244 245 245 244 241 243
172 125 328 274 238 322 269 219 194 188 220 216 228 225 212 214 188 236 220 214 219 213 211 209 205 198 195 199 207 217 229 234 235 238 239 239 239 238 241 242 242 238 235 225
176 158 153 41 267 236 238 151 167 126 262 209 215 219 195 162 212 232 225 220 224 223 215 215 203 200 203 210 218 231 236 238 240 239 238 237 236 235 235 233 225 213 197 179
141 132 212 221 251 277 248 202 139 163 232 223 210 219 208 193 213 221 223 225 224 224 221 215 207 208 214 222 231 238 235 236 234 233 231 231 230 230 229 224 214 202 201 202
168 168 187 181 235 267 184 150 167 213 253 258 205 221 208 213 221 220 221 227 219 219 216 211 211 213 221 233 236 231 229 229 228 228 229 226 223 222 220 215 204 194 189 198
209 191 176 193 216 259 207 190 202 9 222 230 241 214 206 208 217 221 222 224 221 219 213 205 206 215 227 228 228 225 227 225 225 222 216 212 209 208 207 203 195 185 184 196
237 188 218 149 242 259 256 235 240 275 305 307 270 230 219 217 219 216 218 213 212 206 203 204 209 212 214 215 219 220 218 215 210 205 204 201 200 203 197 194 187 184 183 200
202 162 196 271 287 293 286 255 251 253 263 264 295 275 238 222 221 221 215 215 209 200 200 203 202 204 209 209 205 202 198 198 194 190 190 194 192 193 187 189 186 185 182 188
190 214 205 230 191 221 243 259 273 251 266 266 266 284 264 233 220 215 208 200 194 196 196 192 195 201 197 194 192 191 188 185 186 185 182 182 183 179 175 181 176 165 166 174